Voltar ao catálogo

SL-8 DEB *

AtivoLEO
NORAD 18501·DEBRIS·🇷🇺 Russia

Lançado Feb 17, 1978 de Plesetsk Cosmodrome

Loading…

Próximas Passagens (próximas 24 horas)

TLE

AtualizadoSource: Space-Track

Época: Sep 14, 2026, 07:21 UTC

1 18501U 78019E   26257.30647970  .00002028  00000-0  27546-3 0  9997
2 18501  74.0510 318.4399 0007500  77.9060  43.8074 14.79534672200996

Acompanhe SL-8 DEB * em tempo real com AllMySat

Download on the App Store